DW7087 Weather Reports


Display with metric or nautical units.
time (UTC)temp
F
wind
direction
speed
MPH
gust
MPH
rain 1hr
in
rain 24hr
in
rain mn
in
humidity
%
barometer
mb
20190323002403 45 222 1.0 4.0 0.00 0.00 0.00 84 1027.8
20190323001504 45 265 0.0 4.0 0.00 0.00 0.00 83 1027.8
20190323000603 45 0 0.0 0.0 0.00 0.00 0.00 83 1027.8
20190322235704 46 225 0.0 1.0 0.00 0.00 0.00 83 1027.7
20190322234803 46 202 0.0 1.0 0.00 0.00 0.00 83 1027.6
20190322233904 46 197 1.0 2.0 0.00 0.00 0.00 82 1027.6
20190322233004 46 219 1.0 3.0 0.00 0.00 0.00 82 1027.6
20190322232103 47 184 0.0 2.0 0.00 0.00 0.00 82 1027.6
20190322231203 47 232 1.0 2.0 0.00 0.00 0.00 82 1027.7
20190322230303 47 222 2.0 3.0 0.00 0.00 0.00 82 1027.7
20190322225403 48 219 3.0 4.0 0.00 0.00 0.00 81 1027.7
20190322224504 48 225 3.0 3.0 0.00 0.00 0.00 80 1027.7
20190322223603 49 240 1.0 4.0 0.00 0.00 0.00 80 1027.8
20190322222703 49 205 3.0 6.0 0.00 0.00 0.00 79 1027.8
20190322221804 49 229 4.0 4.0 0.00 0.00 0.00 79 1027.7
20190322220903 50 224 4.0 7.0 0.00 0.00 0.00 79 1027.7
20190322220003 50 231 4.0 5.0 0.00 0.00 0.00 78 1027.7
20190322215103 50 218 4.0 6.0 0.00 0.00 0.00 78 1027.6
20190322214203 50 217 4.0 5.0 0.00 0.00 0.00 78 1027.8
20190322213303 50 251 4.0 5.0 0.00 0.00 0.00 77 1027.8
20190322212403 50 216 2.0 4.0 0.00 0.00 0.00 77 1027.8
20190322211503 50 207 3.0 4.0 0.00 0.00 0.00 77 1027.8
20190322210603 50 223 3.0 4.0 0.00 0.00 0.00 77 1027.6
20190322205703 50 211 2.0 4.0 0.00 0.00 0.00 76 1027.6
20190322204803 50 213 2.0 4.0 0.00 0.00 0.00 76 1027.5
20190322203903 50 224 2.0 4.0 0.00 0.00 0.00 76 1027.7
20190322203004 50 241 2.0 5.0 0.00 0.00 0.00 76 1027.6
20190322202103 50 208 2.0 4.0 0.00 0.00 0.00 75 1027.5
20190322201204 50 217 2.0 5.0 0.00 0.00 0.00 75 1027.5
20190322200303 50 225 3.0 6.0 0.00 0.00 0.00 75 1027.5
20190322195403 50 208 2.0 4.0 0.00 0.00 0.00 75 1027.4
20190322194503 50 194 2.0 3.0 0.00 0.00 0.00 75 1027.4
20190322193603 50 224 1.0 3.0 0.00 0.00 0.00 75 1027.5
20190322192704 50 222 2.0 4.0 0.00 0.00 0.00 74 1027.5
20190322191803 50 225 1.0 2.0 0.00 0.00 0.00 74 1027.4
20190322190903 50 222 1.0 3.0 0.00 0.00 0.00 74 1027.5
20190322190004 50 233 2.0 4.0 0.00 0.00 0.00 74 1027.4
20190322185104 51 221 3.0 5.0 0.00 0.00 0.00 74 1027.4
20190322184203 51 188 1.0 3.0 0.00 0.00 0.00 74 1027.4
20190322183304 51 204 2.0 4.0 0.00 0.00 0.00 74 1027.1
20190322182404 51 211 3.0 5.0 0.00 0.00 0.00 73 1027.2
20190322181504 51 252 5.0 7.0 0.00 0.00 0.00 73 1027.3
20190322180604 51 226 5.0 8.0 0.00 0.00 0.00 73 1027.1
20190322175704 51 215 4.0 6.0 0.00 0.00 0.00 73 1027.0
20190322174803 51 245 5.0 8.0 0.00 0.00 0.00 74 1027.0
20190322173904 51 247 4.0 8.0 0.00 0.00 0.00 74 1026.9
20190322173003 51 240 5.0 6.0 0.00 0.00 0.00 74 1026.8
20190322172103 51 213 5.0 8.0 0.00 0.00 0.00 74 1026.7
20190322171203 51 226 5.0 8.0 0.00 0.00 0.00 73 1026.6
20190322170303 51 236 4.0 8.0 0.00 0.00 0.00 73 1026.4
20190322165403 51 219 4.0 6.0 0.00 0.00 0.00 73 1026.4
20190322164503 51 232 5.0 7.0 0.00 0.00 0.00 74 1026.4
20190322163603 51 212 5.0 7.0 0.00 0.00 0.00 74 1026.3
20190322162703 51 224 5.0 9.0 0.00 0.00 0.00 74 1026.3
20190322161804 51 227 5.0 9.0 0.00 0.00 0.00 74 1026.4
20190322160903 51 201 4.0 6.0 0.00 0.00 0.00 74 1026.4
20190322160003 51 219 6.0 8.0 0.00 0.00 0.00 74 1026.4
20190322155103 52 225 6.0 8.0 0.00 0.00 0.00 74 1026.4
20190322154204 52 253 5.0 8.0 0.00 0.00 0.00 74 1026.5
20190322153303 52 234 5.0 7.0 0.00 0.00 0.00 74 1026.6
20190322152403 52 218 6.0 8.0 0.00 0.00 0.00 73 1026.6
20190322151504 52 216 6.0 7.0 0.00 0.00 0.00 73 1026.5
20190322150604 52 236 5.0 8.0 0.00 0.00 0.00 73 1026.7
20190322145703 52 230 6.0 8.0 0.00 0.00 0.00 74 1026.6
20190322144804 52 215 7.0 10.0 0.00 0.00 0.00 74 1026.7
20190322143904 52 233 7.0 8.0 0.00 0.00 0.00 74 1026.9
20190322143003 52 220 5.0 11.0 0.00 0.00 0.00 74 1026.9
20190322142104 52 249 6.0 9.0 0.00 0.00 0.00 73 1027.0
20190322141204 52 226 5.0 7.0 0.00 0.00 0.00 73 1026.9
20190322140303 52 217 4.0 6.0 0.00 0.00 0.00 74 1027.0
20190322135403 52 203 3.0 4.0 0.00 0.00 0.00 74 1027.0
20190322134503 52 204 3.0 6.0 0.00 0.00 0.00 75 1027.0
20190322133603 52 208 5.0 11.0 0.00 0.00 0.00 74 1027.2
20190322132703 52 224 5.0 8.0 0.00 0.00 0.00 73 1027.1
20190322131803 52 158 4.0 7.0 0.00 0.00 0.00 73 1027.3
20190322130904 52 182 5.0 7.0 0.00 0.00 0.00 73 1027.5
20190322130004 52 222 4.0 8.0 0.00 0.00 0.00 73 1027.5
20190322125103 52 209 5.0 9.0 0.00 0.00 0.00 73 1027.5
20190322124204 52 230 4.0 7.0 0.00 0.00 0.00 73 1027.6
20190322123303 52 243 4.0 7.0 0.00 0.00 0.00 75 1027.7
20190322122403 52 210 4.0 6.0 0.00 0.00 0.00 76 1027.6
20190322121503 51 241 4.0 6.0 0.00 0.00 0.00 76 1027.7
20190322120603 51 239 4.0 8.0 0.00 0.00 0.00 76 1027.7
20190322115704 51 233 3.0 6.0 0.00 0.00 0.00 76 1027.8
20190322114808 51 215 4.0 8.0 0.00 0.00 0.00 76 1027.9
20190322113903 51 199 5.0 8.0 0.00 0.00 0.00 76 1028.1
20190322113003 51 244 4.0 7.0 0.00 0.00 0.00 77 1027.9
20190322112103 51 242 3.0 5.0 0.00 0.00 0.00 77 1028.1
20190322111204 50 220 3.0 7.0 0.00 0.00 0.00 77 1028.2
20190322110303 50 210 5.0 7.0 0.00 0.00 0.00 78 1028.1
20190322105403 50 210 5.0 7.0 0.00 0.00 0.00 78 1028.2
20190322104504 50 228 4.0 8.0 0.00 0.00 0.00 79 1028.3
20190322103603 50 237 4.0 8.0 0.00 0.00 0.00 79 1028.5
20190322102704 50 209 5.0 8.0 0.00 0.00 0.00 80 1028.5
20190322101803 49 221 4.0 7.0 0.00 0.00 0.00 80 1028.5
20190322100903 49 241 6.0 8.0 0.00 0.00 0.00 80 1028.6
20190322100005 49 214 3.0 6.0 0.00 0.00 0.00 81 1028.6
20190322095103 49 228 3.0 6.0 0.00 0.00 0.00 81 1028.7
20190322094204 49 228 5.0 8.0 0.00 0.00 0.00 81 1028.6
20190322093303 49 255 4.0 7.0 0.00 0.00 0.00 81 1028.6
20190322092403 49 242 4.0 7.0 0.00 0.00 0.00 81 1028.6
20190322091504 49 227 5.0 7.0 0.00 0.00 0.00 81 1028.7
20190322090604 49 227 5.0 8.0 0.00 0.00 0.00 81 1028.7
20190322085703 49 218 5.0 8.0 0.00 0.00 0.00 81 1028.8
20190322084803 49 219 4.0 6.0 0.00 0.00 0.00 81 1028.9
20190322083904 49 221 4.0 6.0 0.00 0.00 0.00 81 1028.8
20190322083004 49 221 2.0 4.0 0.00 0.00 0.00 81 1028.8
20190322082104 49 222 3.0 4.0 0.00 0.00 0.00 81 1028.8
20190322081203 48 232 4.0 7.0 0.00 0.00 0.00 81 1028.9
20190322080304 48 224 5.0 9.0 0.00 0.00 0.00 81 1028.9
20190322075404 48 202 4.0 7.0 0.00 0.00 0.00 80 1028.9
20190322074503 48 209 4.0 8.0 0.00 0.00 0.00 80 1028.8
20190322073603 48 202 4.0 6.0 0.00 0.00 0.00 80 1028.7
20190322072703 48 195 4.0 7.0 0.00 0.00 0.00 80 1028.7
20190322071803 48 193 4.0 6.0 0.00 0.00 0.00 80 1028.7
20190322070903 48 184 5.0 7.0 0.00 0.00 0.00 80 1028.6
20190322070003 48 186 4.0 7.0 0.00 0.00 0.00 80 1028.6
20190322065103 48 185 3.0 5.0 0.00 0.00 0.00 80 1028.5
20190322064203 48 213 4.0 7.0 0.00 0.00 0.00 80 1028.4
20190322063304 48 182 4.0 6.0 0.00 0.00 0.00 80 1028.4
20190322062403 48 168 3.0 5.0 0.00 0.00 0.00 79 1028.5
20190322061503 48 166 3.0 4.0 0.00 0.00 0.00 79 1028.5
20190322060603 48 191 2.0 4.0 0.00 0.00 0.00 79 1028.6
20190322055704 48 281 1.0 4.0 0.00 0.00 0.00 78 1028.6
20190322054803 48 233 2.0 4.0 0.00 0.00 0.00 78 1028.7
20190322053903 48 197 1.0 3.0 0.00 0.00 0.00 78 1028.6
20190322053003 48 196 2.0 4.0 0.00 0.00 0.00 77 1028.6
20190322052103 48 203 3.0 8.0 0.00 0.00 0.00 77 1028.6
20190322051205 49 186 2.0 4.0 0.00 0.00 0.00 77 1028.6
20190322050303 49 191 3.0 7.0 0.00 0.00 0.00 77 1028.6
20190322045404 49 217 3.0 5.0 0.00 0.00 0.00 77 1028.6
20190322044503 49 171 3.0 5.0 0.00 0.00 0.00 77 1028.7
20190322043604 49 171 2.0 4.0 0.00 0.00 0.00 76 1028.7
20190322042703 49 195 3.0 5.0 0.00 0.00 0.00 76 1028.7
20190322041803 49 195 3.0 7.0 0.00 0.00 0.00 75 1028.8
20190322040903 49 214 5.0 8.0 0.00 0.00 0.00 75 1028.8
20190322040003 49 184 4.0 8.0 0.00 0.00 0.00 75 1028.9
20190322035103 49 177 5.0 6.0 0.00 0.00 0.00 75 1028.9
20190322034203 49 164 4.0 8.0 0.00 0.00 0.00 75 1029.2
20190322033303 50 183 4.0 8.0 0.00 0.00 0.00 74 1029.2
20190322032404 50 160 4.0 7.0 0.00 0.00 0.00 74 1029.2
20190322031503 50 176 4.0 6.0 0.00 0.00 0.00 74 1029.2
20190322030603 50 207 5.0 7.0 0.00 0.00 0.00 74 1029.2
20190322025704 50 195 4.0 7.0 0.00 0.00 0.00 74 1029.3
20190322024803 51 181 5.0 8.0 0.00 0.00 0.00 74 1029.3
20190322023903 51 188 4.0 6.0 0.00 0.00 0.00 75 1029.3
20190322023003 51 183 2.0 5.0 0.00 0.00 0.00 75 1029.3
20190322022103 51 161 5.0 8.0 0.00 0.00 0.00 75 1029.4
20190322021203 51 171 3.0 6.0 0.00 0.00 0.00 75 1029.5
20190322020303 51 176 3.0 4.0 0.00 0.00 0.00 75 1029.5
20190322015403 52 190 2.0 4.0 0.00 0.00 0.00 75 1029.7
20190322014504 52 203 2.0 4.0 0.00 0.00 0.00 75 1029.6
20190322013604 52 175 3.0 8.0 0.00 0.00 0.00 75 1029.6
20190322012703 52 176 3.0 8.0 0.00 0.00 0.00 74 1029.8
20190322011804 52 194 4.0 7.0 0.00 0.00 0.00 73 1029.8
20190322010903 52 194 4.0 8.0 0.00 0.00 0.00 73 1029.9
20190322010004 52 171 3.0 4.0 0.00 0.00 0.00 73 1029.9
20190322005105 52 178 4.0 7.0 0.00 0.00 0.00 73 1029.9
20190322004204 52 167 3.0 6.0 0.00 0.00 0.00 73 1029.9
20190322003303 52 157 3.0 5.0 0.00 0.00 0.00 73 1030.0